Location: Contre
(49.7477°N, 2.0963°E)
Time: 00:27:49
(UTC+00:00)

Envisat - Pass Details

Date: 06 March 2024
Orbit: 762 x 764 km, 98.3° (Epoch: 12 April)

Event Time Altitude Azimuth Distance (km) Brightness Sun altitude
Rises 05:31:13 0° 360° (N) 3,242 6.3 -9.3°
Reaches altitude 10° 05:35:09 10° 329° (NNW) 2,310 5.2 -8.6°
Maximum altitude 05:36:49 12° 309° (NW) 2,195 4.9 -8.4°
Drops below altitude 10° 05:38:30 10° 290° (WNW) 2,305 4.9 -8.1°
Enters shadow 05:39:05 - 284° (WNW) 2,393 4.9 -8.0°
